Lexington Weather

Lexington, Massachusetts, USA

34°F
4/16/2021 11:26am 
  • Lexington Conditions: Light snow, Mist, Overcast
  • Temperature: 34.0°F / 1.1°C 
  • Dew Point: 32.9°FIncreased 0.2°Fsince last hour.
  • Relative Humidity: 96%Increased 1.0% since last hour.
  • Wind: Wind from N N 4 mph, 10-min avg: 1 mph, gust: 5 mph
  • Barometer: 29.45 inFalling 0.04  inHg/hr Falling Slowly
  • Visibility: ¾ mile
  • Snow Today: 1.7 in
  •   

Regional Weather Roundup
for Boston / Norton, MA

        
000
ASUS41 KBOX 122004
RWRBOX

REGIONAL WEATHER ROUNDUP
NATIONAL WEATHER SERVICE BOSTON/NORTON MA
400 PM EDT MON APR 12 2021

NOTE:  "FAIR" INDICATES FEW OR NO CLOUDS BELOW 12,000 FEET WITH NO 
SIGNIFICANT WEATHER AND/OR OBSTRUCTIONS TO VISIBILITY.

MAZALL-122100-
EASTERN MASSACHUSETTS
  
CITY           SKY/WX    TMP DP  RH WIND       PRES   REMARKS
BOSTON         CLOUDY    46  41  82 NE17      29.89R                  
BEVERLY        CLOUDY    45  40  82 NE9       29.88S                  
LAWRENCE       CLOUDY    48  39  71 E13G20    29.90R                  
BEDFORD        DRIZZLE   46  40  79 NE13      29.88R                  
BLUE HILL        N/A     42  41  96 NE13G30   29.84S                  
NORWOOD        CLOUDY    46  41  82 NE14G20   29.87S                  
MARSHFIELD     CLOUDY    45  43  93 NE13G20   29.87R FOG              
PLYMOUTH       CLOUDY    44  40  85 NE14      29.85R                  
TAUNTON        CLOUDY    48  38  68 NE8       29.84S                  
NEW BEDFORD    CLOUDY    47  39  74 NE15G23   29.82S                  
$$

MAZALL-122100-
CAPE COD AND THE ISLANDS
  
CITY           SKY/WX    TMP DP  RH WIND       PRES   REMARKS
FALMOUTH       CLOUDY    45  41  87 NE16G24   29.83R                  
HYANNIS        LGT RAIN  46  42  86 NE13G18   29.82R FOG              
CHATHAM        LGT RAIN  44  41  89 E12G24    29.85R FOG              
PROVINCETOWN   LGT RAIN  45  43  93 E14         N/A  FOG              
NANTUCKET      CLOUDY    46  41  82 E15G25    29.81R                  
MARTHAS VNYRD  CLOUDY    49  40  71 NE21G29   29.81R                  
$$
 
MAZALL-122100-
CENTRAL AND WESTERN MASSACHUSETTS
  
CITY           SKY/WX    TMP DP  RH WIND       PRES   REMARKS
WORCESTER      CLOUDY    45  38  76 NE17G26   29.83S                  
FITCHBURG      CLOUDY    47  40  76 VRB6      29.88R                  
ORANGE         CLOUDY    48  40  73 E13G21    29.86R                  
SPRINGFIELD    CLOUDY    50  40  68 E16G24    29.83R                  
WESTFIELD      CLOUDY    52  41  66 E9        29.82S                  
NORTH ADAMS    CLOUDY    51  43  74 SE10      29.82S                  
PITTSFIELD     LGT RAIN  46  43  89 E6        29.80S FOG              
$$
 
RIZALL-122100-
RHODE ISLAND
  
CITY           SKY/WX    TMP DP  RH WIND       PRES   REMARKS
PROVIDENCE     CLOUDY    49  39  68 NE18G28   29.84R                  
NEWPORT        CLOUDY    47  38  71 NE14G26   29.81S                  
BLOCK ISLAND   CLOUDY    45  39  79 NE15G23   29.81S                  
SMITHFIELD     CLOUDY    45  40  82 NE13G23   29.84R                  
WESTERLY       CLOUDY    49  38  65 NE12G20   29.80R                  
$$
 
CTZALL-122100-
CONNECTICUT
  
CITY           SKY/WX    TMP DP  RH WIND       PRES   REMARKS
BRADLEY INTL   CLOUDY    52  41  66 E14       29.82R                  
HARTFORD       CLOUDY    53  42  66 NE12      29.81R                  
BRIDGEPORT     LGT RAIN  49  43  80 E3        29.80S                  
DANBURY        CLOUDY    51  44  77 NE8       29.81R HAZE             
GROTON         CLOUDY    53  40  61 NE16      29.79R                  
NEW HAVEN      CLOUDY    51  46  83 SE5       29.79R                  
CHESTER        CLOUDY    54  41  62 E12       29.78F                  
MERIDEN        CLOUDY    53  40  61 NE9       29.80R                  
WILLIMANTIC    CLOUDY    50  39  66 NE16G22   29.82R                  
OXFORD         CLOUDY    48  46  93 NE6       29.80S                  
$$

MEZ002-015-021-024-NHZ003-005-008-011-012-014-VTZ005-008-122100-
NORTHERN NEW ENGLAND
  
CITY           SKY/WX    TMP DP  RH WIND       PRES   REMARKS
PORTLAND ME    MOSUNNY   48  39  71 E13       29.91S                  
BANGOR ME      MOSUNNY   59  35  40 NE15G25   29.90F                  
CONCORD NH     CLOUDY    51  36  56 E12       29.87S                  
MANCHESTER NH  PTSUNNY   52  35  52 E12G23    29.86S                  
NASHUA NH      CLOUDY    50  38  63 E14       29.89R                  
PORTSMOUTH NH  PTSUNNY   49  35  60 E14G20    29.90S                  
JAFFREY NH     CLOUDY    47  39  74 VRB7      29.86R                  
KEENE NH       CLOUDY    50  41  71 NE9G16    29.86R                  
BURLINGTON VT  CLOUDY    62  39  42 SW6       29.80S                  
MT. WASHINGTON FOG       28  28 100 E22         N/A  VSB 1/16WCI  15  
$$

NYZ052-076-122100-
EASTERN NEW YORK
  
CITY           SKY/WX    TMP DP  RH WIND       PRES   REMARKS
ALBANY         LGT RAIN  51  43  74 E8        29.83S                  
NEW YORK CITY  CLOUDY    50  39  66 NE3       29.80R                  
$$
 
ANZALL-122100-
MARINE OBSERVATIONS
  
STATION/POSITION TIME  TEMP    WIND        PRES    VSBY  WAVE
                       AIR SEA DIR/SP/G                  HT/PER
                 (UTC) (F)     (DEG/KT/KT) (MB)    (MI)  (FT/S)
BOSTON BUOY      1940   43 45   60/ 14/ 17 1012.1R
BUZZARDS BAY     1900           40/ 23/ 24 1010.0R
NANTUCKET SOUND  1940      47                N/A
MASS BAY-STELLWA 1904   44      60/ 17/ 21 1010.4R  1 7/8  7/ 6
ISLE OF SHOALS   1900   44      70/ 24/ 27 1011.2R
S OF BLOCK IS    1926      45                N/A           5/ 5
$$

......................KEY.........................
  SKY/WX - SKY CONDITION/PRESENT WEATHER
  TMP    - TEMPERATURE IN FAHRENHEIT
  DWPT   - DEWPOINT IN FAHRENHEIT
  RH     - RELATIVE HUMIDITY IN PERCENT
  WIND   - DIRECTION AND SPEED IN MPH
  PRES   - MEAN SEA LEVEL PRESSURE IN INCHES OF HG
  WCI    - WIND CHILL INDEX
  VSB    - VISIBILITY IN MILES
  HX     - HEAT INDEX
  TC     - TEMPERATURE IN CELSIUS
  VRB    - VARIABLE WIND DIRECTION
  N/A    - NOT AVAILABLE
  
      

Other recent Regional Weather Roundups

Fri Apr 16, 11:04am

Fri Apr 16, 10:05am

Fri Apr 16, 9:04am

Fri Apr 16, 8:04am

Fri Apr 16, 7:04am

Fri Apr 16, 6:04am

Fri Apr 16, 5:04am

Fri Apr 16, 4:04am

Fri Apr 16, 3:04am

Fri Apr 16, 2:04am

Fri Apr 16, 1:04am

Fri Apr 16, 12:04am

Thu Apr 15, 11:05pm

Thu Apr 15, 10:04pm

Thu Apr 15, 9:04pm

Thu Apr 15, 8:04pm

Thu Apr 15, 7:05pm

Thu Apr 15, 6:04pm

Thu Apr 15, 5:05pm

Thu Apr 15, 4:04pm

Thu Apr 15, 3:05pm

Thu Apr 15, 2:04pm

Thu Apr 15, 1:05pm

Thu Apr 15, 12:04pm

Thu Apr 15, 11:04am

Thu Apr 15, 10:05am

Thu Apr 15, 9:04am

Thu Apr 15, 8:04am

Thu Apr 15, 7:04am

Thu Apr 15, 6:04am

Thu Apr 15, 5:04am

Thu Apr 15, 4:04am

Thu Apr 15, 3:04am

Thu Apr 15, 2:04am

Thu Apr 15, 1:04am

Thu Apr 15, 12:04am

Wed Apr 14, 11:04pm

Wed Apr 14, 10:04pm

Wed Apr 14, 9:04pm

Wed Apr 14, 8:04pm

Wed Apr 14, 7:04pm

Wed Apr 14, 6:04pm

Wed Apr 14, 5:05pm

Wed Apr 14, 4:04pm

Wed Apr 14, 3:05pm

Wed Apr 14, 2:04pm

Wed Apr 14, 1:05pm

Wed Apr 14, 12:04pm

Wed Apr 14, 11:04am

Wed Apr 14, 10:04am

Wed Apr 14, 9:04am

Wed Apr 14, 8:04am

Wed Apr 14, 7:04am

Wed Apr 14, 6:04am

Wed Apr 14, 5:04am

Wed Apr 14, 4:04am

Wed Apr 14, 3:04am

Wed Apr 14, 2:04am

Wed Apr 14, 1:04am

Wed Apr 14, 12:04am

Tue Apr 13, 11:04pm

Tue Apr 13, 10:05pm

Tue Apr 13, 9:05pm

Tue Apr 13, 8:05pm

Tue Apr 13, 7:04pm

Tue Apr 13, 6:04pm

Tue Apr 13, 5:05pm

Tue Apr 13, 4:04pm

Tue Apr 13, 3:04pm

Tue Apr 13, 2:05pm

Tue Apr 13, 1:04pm

Tue Apr 13, 12:05pm

Tue Apr 13, 11:05am

Tue Apr 13, 10:04am

Tue Apr 13, 9:04am

Tue Apr 13, 8:04am

Tue Apr 13, 7:04am

Tue Apr 13, 6:04am

Tue Apr 13, 5:04am

Tue Apr 13, 4:04am

Tue Apr 13, 3:04am

Tue Apr 13, 2:04am

Tue Apr 13, 1:04am

Tue Apr 13, 12:05am

Mon Apr 12, 11:04pm

Mon Apr 12, 10:04pm

Mon Apr 12, 9:04pm

Mon Apr 12, 8:04pm

Mon Apr 12, 7:05pm

Mon Apr 12, 6:04pm

Mon Apr 12, 5:04pm

Mon Apr 12, 3:05pm

Mon Apr 12, 2:04pm

Mon Apr 12, 1:05pm

Mon Apr 12, 12:04pm

Mon Apr 12, 11:04am

Mon Apr 12, 10:04am

Mon Apr 12, 9:04am

Mon Apr 12, 8:04am

Mon Apr 12, 7:04am

Mon Apr 12, 6:04am

Mon Apr 12, 5:04am

Mon Apr 12, 4:04am

Mon Apr 12, 3:04am

Mon Apr 12, 2:04am

Mon Apr 12, 1:05am

Mon Apr 12, 12:04am

Sun Apr 11, 11:04pm

Sun Apr 11, 10:04pm

Sun Apr 11, 9:04pm

Sun Apr 11, 8:04pm

Sun Apr 11, 7:04pm

Sun Apr 11, 6:05pm

Sun Apr 11, 5:05pm

Sun Apr 11, 4:04pm

Sun Apr 11, 3:05pm

Sun Apr 11, 2:05pm

Sun Apr 11, 1:05pm

Sun Apr 11, 12:04pm

Sun Apr 11, 11:05am

Sun Apr 11, 10:05am

Sun Apr 11, 9:04am

Sun Apr 11, 8:04am

Sun Apr 11, 7:04am

Sun Apr 11, 6:04am

Sun Apr 11, 5:04am

Sun Apr 11, 4:04am

Sun Apr 11, 3:04am

Sun Apr 11, 2:04am

Sun Apr 11, 1:05am

Sun Apr 11, 12:04am

Sat Apr 10, 11:05pm

Sat Apr 10, 10:04pm

Sat Apr 10, 9:04pm

Sat Apr 10, 8:04pm

Sat Apr 10, 7:05pm

Sat Apr 10, 6:04pm

Sat Apr 10, 5:04pm

Sat Apr 10, 4:04pm

Sat Apr 10, 3:04pm

Sat Apr 10, 2:05pm

Sat Apr 10, 1:04pm

Sat Apr 10, 12:04pm

Sat Apr 10, 11:04am

Sat Apr 10, 10:04am

Sat Apr 10, 9:04am

Sat Apr 10, 8:04am

Sat Apr 10, 7:04am

Sat Apr 10, 6:04am

Sat Apr 10, 5:04am

Sat Apr 10, 4:04am

Sat Apr 10, 3:04am

Sat Apr 10, 2:04am

Sat Apr 10, 1:05am

Sat Apr 10, 12:04am

Fri Apr 9, 11:04pm

Fri Apr 9, 10:05pm

Fri Apr 9, 9:04pm

Fri Apr 9, 8:05pm

Fri Apr 9, 7:05pm

Fri Apr 9, 6:04pm

Fri Apr 9, 5:04pm

Fri Apr 9, 4:05pm

Fri Apr 9, 3:05pm

Fri Apr 9, 2:04pm

Fri Apr 9, 1:04pm

Fri Apr 9, 12:04pm

Meta data:

ID: bd5023e2-e026-40e4-8c1a-00118acca558
Link: https://api.weather.gov/products/bd5023e2-e026-40e4-8c1a-00118acca558